User: anonymous   Login
Location: Fort Wayne
(41.1310°N, 85.1290°W)
Time: 15:55:36
(UTC-04:00)
Language:

Helios 1B - Orbit

View from above orbital plane
View from above orbital plane
View from above satellite
View from above satellite

Ground track
Ground track

The orbit data is extracted from the following two-line orbital elements,

1 25977U 99064A   14295.83682244  .00002964  00000-0  39335-3 0  4022
2 25977 098.1577 015.4246 0001876 139.2933 333.0590 14.80596493800610
Epoch (UTC): 22 October 2014 20:05:01
Eccentricity: 0.0001876
inclination: 98.1577°
perigee height: 626 km
apogee height: 629 km
right ascension of ascending node: 15.4246°
argument of perigee: 139.2933°
revolutions per day: 14.80596493
mean anomaly at epoch: 333.0590°
orbit number at epoch: 80061

The dashed part of the orbit path shows where the satellite is in the earth's shadow,  

DLR